Location: Newark
(58.8333°N, 23.5833°E)
Time: 06:06:58
(UTC+00:00)

XW-2C - Visible Passes

Search period start: 06 December 2019 00:00
Search period end: 16 December 2019 00:00
Orbit: 508 x 528 km, 97.5° (Epoch: 05 December)

Date Brightness Start Highest point End Pass type
(mag) Time Alt. Az. Time Alt. Az. Time Alt. Az.
06 Dec ? 03:01:45 10° ENE 03:02:31 10° E 03:03:17 10° E visible
06 Dec ? 04:33:36 10° NNE 04:37:25 64° ESE 04:41:15 10° S visible
06 Dec ? 15:22:42 10° S 15:26:29 72° WSW 15:30:18 10° NNW visible
06 Dec ? 17:00:00 10° WSW 17:01:20 12° W 17:02:41 10° WNW visible
07 Dec ? 04:19:38 10° NNE 04:23:23 47° E 04:27:05 10° S visible
07 Dec ? 05:54:02 10° N 05:57:21 28° WNW 06:00:39 10° WSW visible
07 Dec ? 15:08:40 10° SSE 15:12:27 86° E 15:16:18 10° NNW visible
07 Dec ? 16:44:53 10° WSW 16:47:08 15° W 16:49:24 10° NW visible
08 Dec ? 04:05:43 10° NNE 04:09:18 36° E 04:12:51 10° SSE visible
08 Dec ? 05:39:54 10° N 05:43:26 35° WNW 05:46:56 10° SW visible
08 Dec ? 14:54:42 10° SSE 14:58:27 65° ENE 15:02:16 10° N visible
08 Dec ? 16:30:10 10° SW 16:32:58 19° W 16:35:48 10° NW visible
09 Dec ? 03:51:50 10° NNE 03:55:11 27° E 03:58:31 10° SSE visible
09 Dec ? 05:25:47 10° N 05:29:28 45° WNW 05:33:09 10° SW visible
09 Dec ? 14:40:49 10° SE 14:44:28 48° ENE 14:48:11 10° N visible
09 Dec ? 16:15:38 10° SSW 16:18:49 25° W 16:22:03 10° NW visible
10 Dec ? 03:38:03 10° NE 03:41:03 21° E 03:44:03 10° SE visible
10 Dec ? 05:11:42 10° N 05:15:30 60° WNW 05:19:18 10° SSW visible
10 Dec ? 14:27:00 10° SE 14:30:31 37° ENE 14:34:05 10° N visible
10 Dec ? 16:01:15 10° SSW 16:04:42 33° W 16:08:11 10° NNW visible
11 Dec ? 03:24:21 10° NE 03:26:53 17° E 03:29:25 10° SE visible
11 Dec ? 04:57:38 10° NNE 05:01:31 79° WNW 05:05:21 10° SSW visible
11 Dec ? 15:46:58 10° S 15:50:36 43° W 15:54:17 10° NNW visible
12 Dec ? 03:10:54 10° ENE 03:12:42 13° E 03:14:30 10° ESE visible
12 Dec ? 04:43:37 10° NNE 04:47:29 78° ESE 04:51:21 10° SSW visible
12 Dec ? 15:32:47 10° S 15:36:31 58° WSW 15:40:20 10° NNW visible
13 Dec ? 04:29:37 10° NNE 04:33:27 58° ESE 04:37:14 10° S visible
13 Dec ? 06:04:11 10° N 06:07:18 24° WNW 06:10:25 10° WSW visible
13 Dec ? 15:18:41 10° SSE 15:22:29 78° WSW 15:26:20 10° NNW visible
13 Dec ? 16:55:35 10° WSW 16:57:17 13° W 16:59:00 10° WNW visible
14 Dec ? 04:15:40 10° NNE 04:19:22 44° E 04:23:04 10° S visible
14 Dec ? 05:50:01 10° N 05:53:23 30° WNW 05:56:45 10° WSW visible
14 Dec ? 15:04:39 10° SSE 15:08:27 79° ENE 15:12:19 10° NNW visible
14 Dec ? 16:40:38 10° SW 16:43:05 16° W 16:45:34 10° NW visible
15 Dec ? 04:01:44 10° NNE 04:05:17 33° E 04:08:47 10° SSE visible
15 Dec ? 05:35:52 10° N 05:39:27 38° WNW 05:43:01 10° SW visible
15 Dec ? 14:50:43 10° SSE 14:54:27 60° ENE 14:58:15 10° N visible
15 Dec ? 16:25:58 10° SW 16:28:55 21° W 16:31:54 10° NW visible
